Connaught, Ireland

6:29 AM IST on September 05, 2015 (GMT +0100)
Connaught | | Change Station
CLOSE
Current Station
Airport
Location: Ireland West Airport Knock,
Elevation: 663 ft
Nearby Weather Stations

Elev 663 ft 53.91 °N, 8.81 °W | Updated 29 minutes ago

Mostly Cloudy
Mostly Cloudy
50 °F
Feels Like 50 °F
N
7
Wind Variable Wind from NNW

Today
High -- | Low -- °F
--% Chance of Precip.
Yesterday
High -- | Low -- °F
Precip. -- in
6:50 AM 8:16 PM
Waning Gibbous, 52% visible
Pressure 30.30 in
Visibility 6.2 miles
Clouds Mostly Cloudy 2500 ft
Dew Point 45 °F
Humidity 82%
Rainfall 0.00 in
Snow Depth Not available.
UV 0 out of 12
Pollen Not available.
Air Quality Not available.
Flu Activity Not available.
METAR EIKN 050500Z 34006KT 310V010 9999 BKN025 10/07 Q1026 NOSIG
Pressure 30.30 in
Visibility 6.2 miles
Clouds Mostly Cloudy 2500 ft
Dew Point 45 °F
Humidity 82%
Rainfall 0.00 in
Snow Depth Not available.
UV 0 out of 12
Pollen Not available.
Air Quality Not available.
Flu Activity Not available.
METAR EIKN 050500Z 34006KT 310V010 9999 BKN025 10/07 Q1026 NOSIG

10-Day Weather Forecast

×

Almanac

Astronomy

Sep. 05, 2015 Rise Set
Actual Time
Civil Twilight
Nautical Twilight
Astronomical Twilight
Moon
Length of Visible Light
Length of Day
Tomorrow will be .
, % of the Moon is Illuminated

Today's Extremes

Country Highs Country Lows

Community

WunderPhotos

Upload Photos

1,852,427 photos uploaded!

WunderBlogs® & News

Nearby

Air Quality

  Air Quality AQ Index Pollutant
Not available.

Snow Depth

Station Depth Elevation

Earthquake Activity

City Distance Mag. Time & Date
Minimum magnitude displayed is 2.5.

Coastal Water Temperatures

Place Temperature

Stations

Nearby Weather Stations

Station Location Temp. Windchill Dew Point Humidity Wind Precip. Elev Updated Type